Tracking 20239 objects as of 23-Jan-2020
HD Live streaming from Space Station
objects crossing your sky now

FENGYUN 1C DEB

Track FENGYUN 1C DEB now!
10-day predictions


NORAD ID: 30809
Int'l Code: 1999-025AUT
Perigee: 806.9 km
Apogee: 899.3 km
Inclination: 98.9 °
Period: 101.8 minutes
Semi major axis: 7224 km
RCS: 0.0182 m2 (small)
Launch date: May 10, 1999
Source: People's Republic of China (PRC)
Launch site: Taiyaun Space Center, China (TSC)

Note: This is SATELLITE DEBRIS
aabbcc
Your satellite tracking list
Your tracking list is empty




NASA's NSSDC Master Catalog

Two Line Element Set (TLE):
1 30809U 99025AUT 20021.62460340  .00000487  00000-0  27470-3 0  9997
2 30809  98.8986  91.9032 0064009 208.8885 150.8738 14.13925475666249
Source of the keplerian elements: AFSPC